UR7D-10 Weather Reports


time (UTC)temp
C
wind
direction
speed
KPH
gust
KPH
rain 1hr
cm
rain 24hr
cm
rain mn
cm
humidity
%
barometer
mb
20260508021006 13 136 0.0 0.0 0.03 0.91 0.03 90 1015.1
20260508011002 13 105 4.8 6.4 0.15 0.89 0.89 90 1015.3
20260507230956 14 91 3.2 8.0 0.08 0.48 0.48 86 1015.5
20260507220953 13 337 1.6 4.8 0.05 0.41 0.41 87 1015.4
20260507210949 15 146 4.8 12.9 0.15 0.36 0.36 86 1015.5
20260507200945 15 203 1.6 4.8 0.00 0.20 0.20 84 1015.4
20260507190942 14 47 0.0 0.0 0.00 0.20 0.20 86 1015.2
20260507180938 16 65 3.2 8.0 0.00 0.20 0.20 77 1014.6
20260507160931 16 102 0.0 3.2 0.03 0.20 0.20 85 1014.6
20260507150928 16 155 3.2 6.4 0.05 0.18 0.18 85 1014.8
20260507140924 16 108 1.6 6.4 0.08 0.13 0.13 83 1015.1
20260507130921 17 138 6.4 9.7 0.03 0.05 0.05 77 1015.2
20260507120918 18 255 9.7 16.1 0.03 0.03 0.03 69 1014.6
20260507110914 20 255 8.0 17.7 0.00 0.00 0.00 58 1014.1
20260507100911 20 269 9.7 19.3 0.00 0.00 0.00 59 1014.2
20260507090909 21 174 12.9 20.9 0.00 0.00 0.00 53 1014.1
20260507080905 20 200 12.9 24.1 0.00 0.00 0.00 56 1013.3
20260507070900 20 139 8.0 19.3 0.00 0.00 0.00 57 1013.3
20260507060857 18 238 3.2 11.3 0.00 0.00 0.00 61 1013.1
20260507050853 17 352 1.6 6.4 0.00 0.00 0.00 65 1012.6
20260507040850 13 137 1.6 6.4 0.00 0.00 0.00 77 1013.1
20260507030846 12 149 0.0 0.0 0.00 0.00 0.00 78 1012.4